Date String (YYYY-MM-DD hh:mm:ss) UTC,Instrument flags,absolute air pressure of the measurement (hPa),sample flow rate (lpm),inlet stack bypass flow (lpm),air temperature of the measurement (°C),ambient temperature measured by the external sensor (°C),aerosol sample conditioner tube jacket temperature (°C),OPC LED temperature (°C),internal box temperature (°C),relative humidity of the measurement (%),span deviation,mass concentration of particles derived from Lorenz-Mie calculation of OPC scattering (μg/m³),mass concentration of particles derived from Lorenz-Mie calculation of OPC scattering (μg/m³),mass concentration of particles derived from Lorenz-Mie calculation of OPC scattering (μg/m³)
DateTimeUTC,F1_M11,P_M11,Q1_M11,Q2_M11,T1_M11,T2_M11,T3_M11,T4_M11,T5_M11,U1_M11,ZSPAN_M11,X2_M11,X0_M11,X1_M11
2023-10-14 07:00:00,SystemResetWarning,0836.5,5.00,000.00,027.2,025.7,000.0,035.7,028.8,13.5,0000.0,0003.39,0005.18,0003.15
2023-10-14 07:01:00,SystemResetWarning,0836.5,5.00,000.00,027.2,025.7,000.0,035.7,028.8,13.5,0000.0,0003.38,0005.02,0003.16
2023-10-14 07:02:00,SystemResetWarning,0836.5,5.00,000.00,027.2,025.7,000.0,035.7,028.8,13.6,0000.0,0003.35,0004.88,0003.16
2023-10-14 07:03:00,SystemResetWarning,0836.5,5.00,000.00,027.2,025.8,000.0,035.7,028.9,13.6,0000.0,0003.37,0004.91,0003.17
2023-10-14 07:04:00,SystemResetWarning,0836.5,5.00,000.00,027.2,025.8,000.0,035.7,028.9,13.6,0000.0,0003.41,0005.04,0003.19
2023-10-14 07:05:00,SystemResetWarning,0836.5,5.00,000.00,027.2,025.8,000.0,035.7,028.9,13.5,0000.0,0003.45,0005.29,0003.22
2023-10-14 07:06:00,SystemResetWarning,0836.5,5.00,000.00,027.2,025.8,000.0,035.7,028.9,13.5,0000.0,0003.47,0005.28,0003.24
2023-10-14 07:07:00,SystemResetWarning,0836.5,5.00,000.00,027.2,025.8,000.0,035.6,028.9,13.4,0000.0,0003.49,0005.28,0003.27
2023-10-14 07:08:00,SystemResetWarning,0836.5,5.00,000.00,027.2,025.8,000.0,035.7,028.9,13.4,0000.0,0003.53,0005.32,0003.29
2023-10-14 07:09:00,SystemResetWarning,0836.5,5.00,000.00,027.2,025.8,000.0,035.7,028.9,13.6,0000.0,0003.54,0005.66,0003.30
2023-10-14 07:10:00,SystemResetWarning,0836.5,5.00,000.00,027.3,025.8,000.0,035.7,028.9,13.6,0000.0,0003.56,0005.74,0003.31
2023-10-14 07:11:00,SystemResetWarning,0836.5,5.00,000.00,027.2,025.8,000.0,035.7,028.9,13.6,0000.0,0003.56,0005.64,0003.31
2023-10-14 07:12:00,SystemResetWarning,0836.5,5.00,000.00,027.3,025.8,000.0,035.6,028.9,13.6,0000.0,0003.55,0005.58,0003.31
2023-10-14 07:13:00,SystemResetWarning,0836.5,5.00,000.00,027.2,025.8,000.0,035.6,028.9,13.4,0000.0,0003.55,0006.94,0003.32
2023-10-14 07:14:00,SystemResetWarning,0836.5,5.00,000.00,027.3,025.8,000.0,035.7,028.9,13.4,0000.0,0003.53,0006.83,0003.32
2023-10-14 07:15:00,SystemResetWarning,0836.5,5.00,000.00,027.3,025.8,000.0,035.7,028.9,13.4,0000.0,0003.51,0006.72,0003.31
2023-10-14 07:16:00,SystemResetWarning,0836.5,5.01,000.00,027.3,025.8,000.0,035.7,028.9,13.4,0000.0,0003.50,0006.81,0003.30
2023-10-14 07:17:00,SystemResetWarning,0836.5,5.00,000.00,027.3,025.8,000.0,035.7,028.9,13.4,0000.0,0003.49,0006.76,0003.28
2023-10-14 07:18:00,SystemResetWarning,0836.5,5.00,000.00,027.2,025.8,000.0,035.7,028.9,13.4,0000.0,0003.46,0006.61,0003.25
2023-10-14 07:19:00,SystemResetWarning,0836.5,5.00,000.00,027.2,025.8,000.0,035.7,028.9,13.3,0000.0,0003.43,0006.61,0003.23
2023-10-14 07:20:00,SystemResetWarning,0836.6,5.00,000.00,027.3,025.8,000.0,035.7,028.9,13.4,0000.0,0003.45,0006.47,0003.22
2023-10-14 07:21:00,SystemResetWarning,0836.6,5.01,000.00,027.2,025.8,000.0,035.7,028.9,13.5,0000.0,0003.47,0006.51,0003.22
2023-10-14 07:22:00,SystemResetWarning,0836.6,5.00,000.00,027.2,025.8,000.0,035.7,028.9,13.5,0000.0,0003.50,0006.67,0003.23
2023-10-14 07:23:00,SystemResetWarning,0836.6,5.00,000.00,027.2,025.8,000.0,035.7,028.9,13.5,0000.0,0003.52,0006.74,0003.25
2023-10-14 07:24:00,SystemResetWarning,0836.6,5.00,000.00,027.2,025.8,000.0,035.7,028.9,13.4,0000.0,0003.52,0005.35,0003.25
2023-10-14 07:25:00,SystemResetWarning,0836.7,5.00,000.00,027.3,025.8,000.0,035.7,028.9,13.4,0000.0,0003.53,0005.39,0003.25
2023-10-14 07:26:00,SystemResetWarning,0836.7,5.00,000.00,027.3,025.8,000.0,035.7,028.9,13.4,0000.0,0003.54,0005.68,0003.25
2023-10-14 07:27:00,SystemResetWarning,0836.6,5.00,000.00,027.3,025.8,000.0,035.7,028.9,13.4,0000.0,0003.52,0005.57,0003.25
2023-10-14 07:28:00,SystemResetWarning,0836.6,5.01,000.00,027.3,025.8,000.0,035.7,028.9,13.4,0000.0,0003.50,0005.70,0003.25
2023-10-14 07:29:00,SystemResetWarning,0836.6,5.00,000.00,027.3,025.8,000.0,035.7,029.0,13.5,0000.0,0003.51,0005.80,0003.25
2023-10-14 07:30:00,SystemResetWarning,0836.6,5.00,000.00,027.3,025.8,000.0,035.7,029.0,13.3,0000.0,0003.52,0005.87,0003.26
2023-10-14 07:31:00,SystemResetWarning,0836.6,5.00,000.00,027.3,025.8,000.0,035.7,029.0,13.3,0000.0,0003.49,0005.65,0003.25
2023-10-14 07:32:00,SystemResetWarning,0836.6,5.00,000.00,027.3,025.8,000.0,035.7,029.0,13.3,0000.0,0003.43,0005.44,0003.23
2023-10-14 07:33:00,SystemResetWarning,0836.7,5.00,000.00,027.3,025.8,000.0,035.7,029.0,13.2,0000.0,0003.41,0006.56,0003.22
2023-10-14 07:34:00,SystemResetWarning,0836.6,5.00,000.00,027.3,025.8,000.0,035.7,028.9,13.2,0000.0,0003.39,0006.69,0003.19
2023-10-14 07:35:00,SystemResetWarning,0836.6,5.00,000.00,027.3,025.8,000.0,035.7,028.9,13.2,0000.0,0003.38,0006.67,0003.17
2023-10-14 07:36:00,SystemResetWarning,0836.6,5.00,000.00,027.3,025.8,000.0,035.7,029.0,13.3,0000.0,0003.37,0006.86,0003.16
2023-10-14 07:37:00,SystemResetWarning,0836.6,5.00,000.00,027.3,025.8,000.0,035.7,029.0,13.3,0000.0,0003.38,0006.65,0003.16
2023-10-14 07:38:00,SystemResetWarning,0836.6,5.00,000.00,027.3,025.8,000.0,035.7,029.0,13.3,0000.0,0003.38,0006.61,0003.17
2023-10-14 07:39:00,SystemResetWarning,0836.6,5.00,000.00,027.3,025.8,000.0,035.7,029.0,13.3,0000.0,0003.37,0006.38,0003.17
2023-10-14 07:40:00,SystemResetWarning,0836.6,4.99,000.00,027.3,025.8,000.0,035.7,029.0,13.3,0000.0,0003.35,0006.30,0003.15
2023-10-14 07:41:00,SystemResetWarning,0836.7,5.00,000.00,027.3,025.8,000.0,035.7,029.0,13.3,0000.0,0003.32,0006.08,0003.14
2023-10-14 07:42:00,SystemResetWarning,0836.6,5.00,000.00,027.3,025.8,000.0,035.7,029.0,13.3,0000.0,0003.34,0006.15,0003.15
2023-10-14 07:43:00,SystemResetWarning,0836.6,5.00,000.00,027.3,025.8,000.0,035.7,029.0,13.3,0000.0,0003.37,0006.46,0003.15
2023-10-14 07:44:00,SystemResetWarning,0836.6,5.00,000.00,027.3,025.8,000.0,035.7,029.0,13.3,0000.0,0003.36,0005.59,0003.13
2023-10-14 07:45:00,SystemResetWarning,0836.6,5.00,000.00,027.3,025.8,000.0,035.7,029.0,13.2,0000.0,0003.36,0005.26,0003.13
2023-10-14 07:46:00,SystemResetWarning,0836.6,5.00,000.00,027.3,025.8,000.0,035.7,029.0,13.2,0000.0,0003.37,0005.21,0003.13
2023-10-14 07:47:00,SystemResetWarning,0836.6,5.00,000.00,027.3,025.8,000.0,035.7,029.0,13.2,0000.0,0003.37,0005.08,0003.13
2023-10-14 07:48:00,SystemResetWarning,0836.6,5.00,000.00,027.3,025.8,000.0,035.7,028.9,13.2,0000.0,0003.34,0004.99,0003.11
2023-10-14 07:49:00,SystemResetWarning,0836.6,5.00,000.00,027.3,025.8,000.0,035.7,029.0,13.2,0000.0,0003.31,0004.98,0003.06
2023-10-14 07:50:00,SystemResetWarning,0836.6,5.01,000.00,027.3,025.8,000.0,035.7,029.0,13.2,0000.0,0003.30,0005.00,0003.03
2023-10-14 07:51:00,SystemResetWarning,0836.6,5.00,000.00,027.3,025.8,000.0,035.7,029.0,13.2,0000.0,0003.31,0004.99,0003.02
2023-10-14 07:52:00,SystemResetWarning,0836.6,5.00,000.00,027.3,025.8,000.0,035.7,029.0,13.1,0000.0,0003.31,0005.12,0003.01
2023-10-14 07:53:00,SystemResetWarning,0836.6,5.00,000.00,027.3,025.8,000.0,035.7,028.9,13.2,0000.0,0003.31,0005.22,0002.99
2023-10-14 07:54:00,SystemResetWarning,0836.6,5.01,000.00,027.3,025.8,000.0,035.7,029.0,13.2,0000.0,0003.27,0004.94,0002.96
2023-10-14 07:55:00,SystemResetWarning,0836.6,5.00,000.00,027.3,025.8,000.0,035.7,029.0,13.2,0000.0,0003.27,0005.73,0002.96
2023-10-14 07:56:00,SystemResetWarning,0836.6,5.00,000.00,027.3,025.8,000.0,035.7,029.0,13.2,0000.0,0003.24,0005.99,0002.94
2023-10-14 07:57:00,SystemResetWarning,0836.5,5.00,000.00,027.3,025.8,000.0,035.7,029.0,13.2,0000.0,0003.24,0006.01,0002.92
2023-10-14 07:58:00,SystemResetWarning,0836.5,5.00,000.00,027.3,025.8,000.0,035.7,029.0,13.2,0000.0,0003.24,0006.03,0002.93
2023-10-14 07:59:00,SystemResetWarning,0836.6,5.00,000.00,027.3,025.8,000.0,035.7,029.0,13.2,0000.0,0003.28,0006.11,0002.97
